Location: Anne Acres
(38.7004°N, 75.0827°W)
Time: 23:43:48
(UTC+00:00)

Altair - Pass Details

Date: 08 November 2024
Orbit: 1501 x 1683 km, 47.2° (Epoch: 03 December)

Event Time Altitude Azimuth Distance (km) Brightness Sun altitude
Rises 23:00:19 0° 300° (WNW) 4,646 10.8 -13.6°
Reaches altitude 10° 23:03:20 10° 298° (WNW) 3,673 10.3 -14.1°
Maximum altitude 23:12:28 67° 218° (SW) 1,650 7.8 -15.9°
Drops below altitude 10° 23:21:54 10° 139° (SE) 3,781 9.2 -17.7°
Sets 23:25:03 0° 136° (SE) 4,789 9.8 -18.3°
